Observations for Trim Patrick St
| Time | AQI | Temp °C | Hum % | Pres Pa | CO μg/m³ | H₂S μg/m³ | NO μg/m³ | NO₂ μg/m³ | O₃ μg/m³ | SO₂ μg/m³ | PM1 μg/m³ | PM2.5 μg/m³ | PM10 μg/m³ |
|---|---|---|---|---|---|---|---|---|---|---|---|---|---|
| Sunday 9 August 2026 | |||||||||||||
| 04:16 | 2 | 18.6 | 68 | 78,503 | 0 | 0 | 1.84 | 11.97 | 42.26 | 0 | 2 | 6.74 | 7.42 |
| 04:10 | 2 | 18.6 | 68 | 78,273 | 0 | 0 | 1.84 | 12.38 | 43.09 | 0 | 4.57 | 7.49 | 8.24 |
| 04:07 | 2 | 18.6 | 68 | 78,232 | 0 | 0 | 1.78 | 9.22 | 41.53 | 0 | 2.86 | 6.03 | 6.63 |
| 04:06 | 2 | 18.6 | 68 | 78,198 | 0 | 0 | 1.78 | 12.55 | 36.97 | 0 | 2.86 | 6.76 | 7.43 |
| 04:05 | 2 | 18.6 | 68 | 78,153 | 0 | 0.62 | 1.6 | 12.88 | 53.14 | 0 | 2.86 | 6.76 | 7.44 |
| 04:04 | 2 | 18.6 | 68 | 78,110 | 0 | 0 | 2.09 | 14.81 | 43.82 | 0 | 3.71 | 7.48 | 8.23 |
| 04:03 | 2 | 18.6 | 68 | 78,084 | 0 | 0 | 1.98 | 11.47 | 46.12 | 0 | 3.71 | 7.48 | 8.23 |
| 04:02 | 2 | 18.6 | 68 | 78,070 | 0 | 0 | 2.23 | 12.8 | 41.73 | 0 | 3.71 | 7.49 | 8.24 |
| 04:01 | 2 | 18.6 | 67 | 78,074 | 0 | 0 | 2.21 | 11.82 | 40.12 | 0 | 2.86 | 6.77 | 7.45 |
| 04:00 | 2 | 18.6 | 66 | 78,086 | 0 | 0 | 2.53 | 11.46 | 42.21 | 0 | 2.86 | 6.15 | 6.76 |
| 03:59 | 2 | 18.6 | 68 | 78,100 | 0 | 0 | 2.24 | 12.53 | 42.89 | 0 | 2 | 6.04 | 6.64 |
| 03:58 | 2 | 18.6 | 68 | 78,108 | 0 | 0 | 2.17 | 12.88 | 41.52 | 0 | 2.86 | 6.76 | 7.44 |
| 03:57 | 2 | 18.6 | 67 | 78,100 | 0 | 0 | 2.23 | 13.15 | 39.28 | 0 | 3.71 | 7.5 | 8.25 |
| 03:56 | 2 | 18.6 | 67 | 78,110 | 0.01 | 0 | 2.29 | 13.05 | 39.36 | 0 | 2.86 | 6.77 | 7.45 |
| 03:55 | 2 | 18.6 | 67 | 78,122 | 0 | 0 | 2.07 | 12.61 | 45.75 | 0 | 3.71 | 6.77 | 7.45 |
| 03:54 | 2 | 18.6 | 67 | 78,153 | 0 | 0 | 2.12 | 11.99 | 39.67 | 0 | 2 | 5.32 | 5.85 |
| 03:53 | 2 | 18.6 | 68 | 78,169 | 0 | 0 | 2.17 | 12.02 | 41.02 | 0 | 2.86 | 6.04 | 6.64 |
| 03:52 | 2 | 18.6 | 66 | 78,222 | 0 | 0 | 2.35 | 10.67 | 39.04 | 0 | 2 | 6.12 | 6.73 |
| 03:51 | 2 | 18.6 | 67 | 78,279 | 0.01 | 0 | 2.14 | 11.08 | 41.53 | 0 | 2.86 | 6.77 | 7.45 |
| 03:50 | 2 | 18.6 | 68 | 78,346 | 0 | 0 | 2.28 | 11.84 | 38.37 | 0 | 2 | 6.03 | 6.63 |